Date,TemperatureHighF,TemperatureAvgF,TemperatureLowF,DewpointHighF,DewpointAvgF,DewpointLowF,HumidityHigh,HumidityAvg,HumidityLow,PressureMaxIn,PressureMinIn,WindSpeedMaxMPH,WindSpeedAvgMPH,GustSpeedMaxMPH,PrecipitationSumIn
2014-1-1,21.5,19.2,16.0,18.8,16.5,12.8,91,89,87,30.26,30.13,17,13,22,0.00
2014-1-2,18.2,11.8,1.4,16.0,8.7,-2.6,91,87,83,30.46,30.10,19,13,28,0.00
2014-1-3,20.2,11.0,-6.8,15.1,6.7,-10.5,88,83,77,30.51,29.98,24,14,35,0.00
2014-1-4,34.0,28.3,19.7,29.5,23.7,14.9,92,83,75,29.98,29.88,27,15,38,0.00
2014-1-5,29.6,13.0,-6.0,27.5,10.4,-10.3,92,89,81,30.18,29.88,36,21,44,0.00
2014-1-6,-5.9,-11.4,-15.4,-10.2,-16.3,-20.5,83,78,75,30.42,30.18,33,20,42,0.00
2014-1-7,8.8,-0.4,-10.1,4.2,-5.2,-15.1,85,80,75,30.43,30.30,18,10,21,0.00
2014-1-8,13.2,8.5,2.4,8.5,4.3,-0.6,88,83,77,30.54,30.30,7,3,10,0.00
2014-1-9,30.4,20.0,9.7,28.4,16.9,3.4,92,87,76,30.54,30.17,12,8,17,0.00
2014-1-10,38.9,34.7,30.4,37.3,32.9,28.3,94,93,92,30.16,29.51,23,12,28,0.86
2014-1-11,38.9,34.4,30.1,37.3,32.0,27.0,94,91,84,29.84,29.44,25,12,34,0.05
2014-1-12,43.4,36.3,28.1,37.8,32.4,25.9,92,86,77,29.90,29.60,26,16,37,0.00
2014-1-13,47.3,38.5,28.4,41.0,34.4,25.8,91,85,73,29.80,29.55,21,10,28,0.00
2014-1-14,35.4,29.3,22.0,32.3,25.3,16.2,92,85,74,29.97,29.66,32,18,46,0.00
2014-1-15,22.1,18.2,15.0,17.7,13.6,10.7,87,82,71,30.14,29.90,25,12,34,0.00
2014-1-16,38.4,29.6,19.0,32.6,24.9,13.6,90,83,75,29.91,29.55,24,15,37,0.00
2014-1-17,19.1,12.3,7.6,14.2,8.0,3.8,86,83,78,30.05,29.74,24,14,32,0.00
2014-1-18,22.7,15.8,6.6,20.7,13.2,4.0,92,89,83,30.02,29.68,19,9,25,0.00
2014-1-19,38.7,26.0,6.2,32.7,22.0,3.7,91,85,75,29.95,29.61,32,18,38,0.00
2014-1-20,37.6,31.6,18.0,32.2,28.1,15.8,92,87,78,29.98,29.65,20,9,25,0.00
2014-1-21,18.0,4.9,-1.1,15.7,0.2,-4.5,91,81,69,30.34,29.98,35,14,44,0.00
2014-1-22,18.8,9.2,1.0,15.2,4.5,-6.5,89,81,70,30.30,29.96,28,14,39,0.00
2014-1-23,3.8,-1.1,-6.0,-1.8,-6.8,-10.3,81,76,70,30.70,30.30,25,16,33,0.00
2014-1-24,28.3,13.3,-6.1,24.8,6.4,-10.3,91,74,60,30.66,29.58,36,22,46,0.00
2014-1-25,33.5,19.6,6.8,30.5,12.2,0.5,91,73,59,29.94,29.52,38,20,50,0.00
2014-1-26,40.4,26.8,9.9,33.9,20.6,-0.3,89,77,62,29.89,29.46,46,17,55,0.00
2014-1-27,3.1,-0.8,-4.6,-3.1,-8.3,-11.0,81,70,62,30.53,30.28,27,18,49,0.00
2014-1-28,11.7,1.3,-7.2,1.2,-5.4,-12.0,81,73,55,30.54,30.32,15,7,24,0.00
2014-1-29,28.5,15.0,0.8,12.4,5.5,-3.4,83,67,45,30.32,30.06,21,12,29,0.00
2014-1-30,35.7,26.7,19.3,29.4,18.2,10.2,91,72,42,30.07,29.68,36,21,53,0.00
2014-1-31,21.5,18.9,17.4,19.3,15.7,12.6,92,87,79,30.20,29.98,17,7,25,0.00
2014-2-1,29.6,25.6,21.3,27.6,23.6,19.1,92,92,91,30.13,29.85,13,8,16,0.00
2014-2-2,21.3,10.6,-2.4,19.1,7.4,-5.1,91,87,83,30.36,30.13,12,8,14,0.00
2014-2-3,14.7,1.5,-12.1,11.8,-1.9,-16.4,89,85,80,30.47,30.35,10,2,10,0.00
2014-2-4,20.2,12.9,1.2,18.0,9.3,-2.2,91,85,76,30.45,30.06,24,9,30,0.00
2014-2-5,23.0,16.6,3.2,21.0,14.0,0.1,92,89,86,30.51,30.00,22,14,28,0.00
2014-2-6,5.1,-3.2,-10.2,0.9,-7.5,-14.4,86,81,75,30.58,30.50,16,8,22,0.00
2014-2-7,8.8,-0.7,-12.5,3.4,-5.1,-16.2,85,81,76,30.53,30.41,14,6,16,0.00
2014-2-8,18.2,14.1,6.7,15.9,11.1,2.1,91,88,81,30.41,30.17,10,5,14,0.00
2014-2-9,18.0,10.4,-5.5,16.1,7.1,-9.6,92,87,79,30.38,30.15,15,8,19,0.00
2014-2-10,4.4,-5.9,-15.7,-2.1,-10.6,-19.7,85,80,73,30.57,30.38,15,8,17,0.00
2014-2-11,12.2,-4.9,-19.7,3.6,-9.3,-24.2,87,81,63,30.63,30.42,9,2,14,0.00
2014-2-12,22.4,7.2,-9.5,15.4,3.3,-13.3,90,84,74,30.42,30.07,8,3,10,0.00
2014-2-13,33.0,21.1,0.4,29.5,16.2,-3.0,90,81,68,30.07,29.63,26,12,33,0.00
2014-2-14,16.6,11.1,2.0,12.8,7.7,-1.1,89,86,82,30.03,29.70,17,8,25,0.00
2014-2-15,20.5,6.8,-9.3,18.0,3.2,-13.1,91,85,75,30.18,29.99,14,7,17,0.00
2014-2-16,22.5,17.8,12.5,19.5,14.6,9.7,91,87,80,30.30,29.98,17,8,20,0.00
2014-2-17,33.4,26.1,17.1,31.1,23.4,14.1,93,89,86,30.27,29.73,24,16,34,0.00
2014-2-18,42.9,33.9,20.2,33.8,28.3,16.7,91,80,66,29.99,29.69,27,14,33,0.00
2014-2-19,38.1,33.5,27.8,32.5,30.1,25.2,90,87,80,30.00,29.69,14,8,19,0.00
2014-2-20,47.2,37.3,34.0,45.3,34.7,31.3,93,90,82,29.90,29.21,47,18,63,0.70
2014-2-21,37.7,33.3,28.8,31.5,27.1,19.6,91,78,60,29.88,29.47,34,19,43,0.00
2014-2-22,33.7,30.2,26.1,29.2,26.0,18.1,91,84,66,30.10,29.88,9,4,15,0.00
2014-2-23,26.6,22.2,19.2,19.8,15.4,10.8,81,75,66,30.31,30.09,19,12,24,0.00
2014-2-24,24.6,20.6,15.1,16.7,13.6,11.1,84,74,59,30.37,30.26,18,10,24,0.00
2014-2-25,21.1,15.3,7.3,15.7,10.0,0.3,90,80,63,30.31,30.22,29,16,37,0.00
2014-2-26,20.3,10.2,0.1,11.8,2.0,-4.9,81,70,51,30.32,29.78,25,16,37,0.00
2014-2-27,20.6,9.0,3.8,12.9,-0.3,-6.7,80,66,52,30.23,29.78,34,13,42,0.00
2014-2-28,34.8,21.1,3.5,24.7,12.6,-1.8,81,70,52,30.23,30.00,19,10,26,0.00
2014-3-1,31.6,23.0,12.4,26.0,18.2,9.8,91,82,72,30.34,30.00,18,12,25,0.00
2014-3-2,12.5,6.9,1.1,9.8,1.8,-5.0,89,79,71,30.48,30.31,19,14,27,0.00
2014-3-3,17.4,5.2,-6.2,6.1,-2.0,-12.2,80,72,58,30.58,30.39,15,4,20,0.00
2014-3-4,31.7,18.9,8.8,19.0,11.8,3.3,84,74,54,30.41,30.20,11,4,13,0.00
2014-3-5,23.8,20.4,16.2,20.1,16.7,11.9,91,85,75,30.42,30.24,21,13,26,0.00
2014-3-6,26.1,21.0,16.5,21.1,16.8,12.6,90,84,78,30.41,30.11,14,6,18,0.00
2014-3-7,48.6,33.9,17.5,39.9,29.3,15.3,92,84,69,30.11,29.89,13,6,17,0.00
2014-3-8,36.4,32.1,28.8,32.8,29.0,25.7,91,88,82,30.29,29.98,16,7,24,0.11
2014-3-9,44.3,34.8,25.8,37.9,30.6,23.0,91,85,73,30.28,29.85,21,12,27,0.00
2014-3-10,56.2,45.3,37.2,49.1,39.8,33.1,90,81,70,29.85,29.67,20,11,26,0.00
2014-3-11,57.4,42.1,33.8,50.9,38.4,31.7,92,87,74,29.68,29.57,21,8,26,0.08
2014-3-12,33.6,27.7,22.2,31.5,25.0,18.7,93,90,86,30.13,29.58,22,9,29,0.10
2014-3-13,39.9,30.3,16.6,36.0,27.0,14.0,91,87,82,30.17,29.87,20,11,25,0.01
2014-3-14,55.9,43.2,34.2,45.1,36.6,31.6,90,78,57,29.93,29.65,29,15,34,0.00
2014-3-15,46.1,37.1,29.5,36.7,31.3,25.4,90,80,62,30.18,29.92,26,10,32,0.00
2014-3-16,29.9,25.0,19.5,26.1,17.6,11.5,87,74,56,30.27,30.10,30,19,38,0.00
2014-3-17,38.7,27.5,17.7,28.4,20.9,13.0,89,77,58,30.11,29.81,12,7,14,0.00
2014-3-18,49.9,39.8,29.4,42.6,35.5,26.7,90,85,72,29.86,29.58,26,12,35,0.00
2014-3-19,46.4,39.9,32.5,43.6,36.6,28.0,90,88,78,30.06,29.55,25,16,32,0.42
2014-3-20,50.5,39.0,29.3,38.7,33.2,27.0,91,80,57,30.06,29.96,12,6,17,0.00
2014-3-21,63.2,46.8,34.8,49.7,38.7,31.1,89,75,52,29.98,29.68,29,11,36,0.00
2014-3-22,40.7,35.3,28.8,33.2,29.1,21.2,90,78,65,30.33,29.93,20,10,22,0.00
2014-3-23,31.5,26.3,21.9,21.8,17.6,14.4,85,70,53,30.45,30.33,18,9,22,0.00
2014-3-24,34.7,28.0,21.9,23.6,19.4,12.7,89,71,48,30.41,30.10,9,4,13,0.00
2014-3-25,29.8,25.0,18.5,26.6,17.5,11.8,91,73,53,30.30,30.05,26,15,33,0.00
2014-3-26,41.4,29.7,14.9,26.2,19.4,12.0,88,67,46,30.37,29.99,23,10,29,0.00
2014-3-27,54.2,43.8,34.3,50.9,39.5,25.4,90,85,63,30.00,29.46,31,20,39,0.56
2014-3-28,49.6,40.7,36.7,44.6,36.9,33.9,90,86,79,30.16,29.51,31,11,40,0.00
2014-3-29,42.0,36.0,31.6,34.6,31.8,27.6,90,85,72,30.25,30.10,15,6,19,0.00
2014-3-30,57.2,41.4,25.9,41.3,32.8,23.1,92,73,51,30.26,30.03,14,7,19,0.00
2014-3-31,65.1,53.0,37.0,46.8,40.9,33.3,87,65,46,30.03,29.71,28,17,35,0.00
2014-4-1,54.2,43.3,31.9,46.1,33.3,24.2,81,68,51,30.08,29.71,24,14,34,0.00
2014-4-2,48.4,42.7,38.0,38.8,35.4,32.3,87,76,65,30.11,29.93,21,11,26,0.03
2014-4-3,46.7,42.7,39.5,44.3,40.3,35.6,93,91,86,29.93,29.52,28,16,38,1.35
2014-4-4,51.6,39.3,35.7,49.6,35.3,30.3,93,86,77,30.07,29.47,31,18,45,0.00
2014-4-5,53.6,41.3,31.3,36.0,31.5,28.4,89,70,44,30.22,30.07,10,4,13,0.00
2014-4-6,49.4,37.9,32.3,38.0,32.0,27.9,87,80,60,30.15,30.08,8,5,11,0.00
2014-4-7,54.7,48.8,39.2,40.3,38.0,35.3,87,67,48,29.75,29.60,10,5,17,0.02
2014-4-8,59.7,48.4,38.4,46.1,40.4,35.7,90,75,45,29.91,29.65,19,9,24,0.01
2014-4-9,62.2,48.3,32.7,41.8,35.5,29.9,90,65,35,30.03,29.87,18,8,21,0.00
2014-4-10,63.7,55.6,44.2,50.8,43.2,33.8,72,63,53,29.94,29.71,25,11,28,0.00
2014-4-11,70.3,54.8,37.8,39.3,33.0,26.9,80,48,22,30.04,29.93,11,6,14,0.00
2014-4-12,78.6,63.8,46.9,61.1,50.7,37.0,77,63,50,30.01,29.63,30,16,39,0.00
2014-4-13,69.5,64.1,59.5,62.9,58.6,55.0,89,83,74,29.71,29.38,30,15,36,0.24
2014-4-14,61.9,41.1,30.6,58.5,38.2,28.3,93,89,84,30.00,29.35,31,16,40,0.02
2014-4-15,40.6,32.5,26.4,28.3,24.8,19.5,91,75,48,30.21,30.00,13,7,18,0.00
2014-4-16,52.9,40.5,29.0,33.9,29.4,25.0,85,67,41,30.28,30.08,26,14,32,0.00
2014-4-17,60.4,49.2,36.4,44.1,38.3,31.0,83,67,49,30.25,30.10,21,10,24,0.00
2014-4-18,66.0,51.4,38.2,43.2,37.9,27.8,89,65,26,30.32,30.21,17,6,21,0.00
2014-4-19,71.8,53.0,33.5,41.8,35.9,28.9,85,57,27,30.32,30.15,14,8,18,0.00
2014-4-20,80.4,62.6,43.7,46.6,43.1,38.3,81,53,28,30.19,29.99,16,9,20,0.00
2014-4-21,76.0,62.6,54.1,59.4,52.9,45.2,88,72,50,29.99,29.80,26,10,33,0.05
2014-4-22,62.2,52.5,39.7,53.2,39.6,32.1,88,64,36,30.05,29.80,20,12,27,0.00
2014-4-23,59.2,46.1,32.9,40.3,33.0,28.7,85,63,36,30.16,29.94,18,8,21,0.00
2014-4-24,72.0,58.3,45.0,53.1,42.7,37.9,86,60,33,30.00,29.57,27,15,33,0.04
2014-4-25,73.5,59.8,47.9,53.2,44.8,33.9,88,62,28,29.84,29.57,24,12,28,0.01
2014-4-26,68.8,55.6,41.6,47.2,39.9,32.9,77,57,41,29.93,29.81,27,13,32,0.00
2014-4-27,77.4,56.8,42.0,58.1,46.2,33.8,87,70,41,29.95,29.66,29,19,35,0.16
2014-4-28,69.9,55.2,48.7,63.1,51.1,44.8,89,86,70,29.72,29.39,24,16,33,0.43
2014-4-29,59.7,54.3,50.0,53.9,49.0,44.9,91,83,67,29.65,29.41,22,11,28,0.03
2014-4-30,50.0,46.8,43.7,46.3,42.3,38.5,90,84,72,29.80,29.64,19,10,21,0.00
2014-5-1,50.3,46.0,42.4,44.0,41.8,39.3,90,85,75,29.86,29.72,25,16,31,0.00
2014-5-2,54.2,48.9,44.5,45.0,43.4,41.5,90,82,68,29.86,29.70,18,11,21,0.00
2014-5-3,71.0,60.3,43.6,46.0,41.4,36.3,88,53,32,29.88,29.69,22,14,30,0.00
2014-5-4,63.2,55.5,45.9,45.9,37.2,25.3,81,52,35,30.03,29.88,21,10,27,0.00
2014-5-5,68.9,55.3,45.6,44.6,37.5,25.6,70,52,39,29.99,29.80,23,15,32,0.00
2014-5-6,77.2,60.8,43.4,50.7,43.6,37.8,82,56,35,29.92,29.71,23,16,30,0.00
2014-5-7,89.5,77.3,61.5,64.6,60.3,48.9,73,57,42,29.77,29.68,21,14,26,0.00
2014-5-8,89.5,78.2,66.2,64.6,62.2,55.5,88,60,34,29.82,29.71,27,17,37,0.03
2014-5-9,75.3,67.9,54.4,66.2,57.8,48.3,88,72,40,29.84,29.66,26,15,32,0.11
2014-5-10,77.8,64.7,47.6,52.1,46.4,40.9,89,56,30,29.93,29.82,11,5,18,0.00
2014-5-11,85.3,69.9,58.0,70.3,60.0,46.8,90,73,45,29.91,29.76,21,11,40,1.05
2014-5-12,86.5,75.9,65.4,73.1,68.7,61.8,88,79,57,29.87,29.72,29,16,42,0.04
2014-5-13,65.4,57.3,50.8,61.8,53.7,47.1,90,88,82,30.15,29.80,18,10,22,0.50
2014-5-14,55.0,50.3,44.7,47.8,45.2,41.7,91,83,68,30.16,29.95,18,8,24,0.23
2014-5-15,55.4,47.8,44.1,47.3,43.6,41.6,92,86,64,30.02,29.90,19,9,25,0.49
2014-5-16,47.7,44.4,42.4,44.6,41.3,39.3,90,89,85,30.11,29.92,14,4,20,0.02
2014-5-17,59.2,49.0,38.1,44.3,38.1,33.7,91,69,40,30.19,30.09,11,5,18,0.00
2014-5-18,67.7,55.0,41.0,47.4,42.3,37.4,87,65,40,30.25,30.15,15,7,18,0.00
2014-5-19,72.5,59.5,47.2,55.4,48.1,42.3,85,68,47,30.20,29.87,28,13,37,0.00
2014-5-20,86.2,73.7,61.1,67.7,63.2,55.4,88,71,53,29.93,29.76,23,13,26,0.00
2014-5-21,89.3,78.0,68.5,69.7,64.0,56.3,86,64,37,29.89,29.75,16,9,20,0.00
2014-5-22,72.6,65.7,57.0,56.3,51.3,47.6,82,61,43,30.08,29.89,16,7,23,0.00
2014-5-23,77.5,64.9,48.7,54.2,48.8,45.5,90,59,33,30.14,30.06,18,6,21,0.00
2014-5-24,77.4,64.8,47.6,49.8,46.2,43.0,85,54,32,30.18,30.05,12,4,14,0.00
2014-5-25,84.2,72.2,57.6,60.1,54.2,49.2,80,56,33,30.09,29.94,12,6,17,0.00
2014-5-26,90.1,74.5,62.9,69.0,63.2,57.1,89,70,41,30.00,29.83,24,9,31,0.44
2014-5-27,84.5,75.3,67.7,71.9,66.4,62.1,88,75,52,29.92,29.81,15,8,20,0.00
2014-5-28,84.6,71.5,59.6,70.8,64.2,55.4,89,79,52,29.95,29.84,18,6,21,0.47
2014-5-29,84.8,70.2,57.9,69.3,62.1,54.5,90,77,55,30.03,29.92,16,8,20,0.00
2014-5-30,87.1,73.8,59.7,63.8,56.3,45.0,87,59,25,30.09,29.99,14,9,21,0.00
2014-5-31,89.5,76.2,58.3,59.3,55.3,49.7,87,53,26,30.10,29.94,15,8,20,0.00
2014-6-1,89.2,76.4,65.8,69.7,63.7,55.3,87,66,48,30.00,29.81,28,11,32,0.02
2014-6-2,85.0,77.2,71.2,70.2,67.1,63.8,88,72,51,29.86,29.76,26,15,35,0.00
2014-6-3,85.3,76.6,67.2,67.4,58.8,50.0,88,58,30,29.93,29.80,16,8,22,0.00
2014-6-4,72.0,64.9,58.4,66.3,60.5,55.2,89,86,60,29.86,29.55,23,8,28,0.57
2014-6-5,76.7,65.6,51.9,56.4,53.1,46.9,91,67,38,29.95,29.84,11,5,15,0.00
2014-6-6,83.2,70.3,54.5,61.7,56.2,49.2,84,63,42,29.95,29.87,7,3,10,0.00
2014-6-7,81.5,69.6,60.1,64.6,59.4,55.0,91,73,42,29.95,29.70,19,8,28,1.29
2014-6-8,74.9,66.1,59.0,65.0,58.2,44.9,91,76,56,29.99,29.67,30,9,37,0.06
2014-6-9,79.6,67.2,51.5,65.0,56.3,45.8,87,69,48,29.98,29.80,11,5,16,0.00
2014-6-10,66.4,63.6,61.4,61.5,59.8,57.8,89,87,81,29.83,29.65,19,10,23,0.27
2014-6-11,65.7,63.5,61.4,61.9,60.1,58.3,91,89,87,29.75,29.61,11,5,14,0.01
2014-6-12,78.6,68.0,59.5,68.9,62.0,55.9,90,82,67,29.85,29.73,15,7,18,0.01
2014-6-13,73.6,62.2,51.3,57.1,48.3,42.8,88,64,36,30.00,29.85,13,8,19,0.00
2014-7-1,80.8,75.7,66.8,69.1,66.7,62.8,88,74,59,29.79,29.69,15,8,21,0.02
2014-7-2,68.4,64.0,59.2,64.7,59.0,55.6,89,84,73,29.99,29.78,12,6,17,0.01
2014-7-3,74.0,65.3,58.2,60.4,56.7,51.8,89,75,53,30.16,29.98,9,4,15,0.04
2014-7-4,80.8,67.6,52.5,63.2,55.9,49.1,89,68,43,30.28,30.16,5,1,7,0.00
2014-7-5,76.3,67.6,57.2,64.8,59.4,53.7,89,76,54,30.23,30.02,12,5,17,0.13
2014-7-6,83.7,73.4,61.7,75.5,67.7,58.1,89,83,72,30.03,29.72,17,8,23,0.00
2014-7-7,85.7,77.7,70.8,76.0,70.6,66.7,88,80,59,29.72,29.61,13,6,20,0.00
2014-7-8,79.2,72.9,63.1,70.2,65.6,59.8,89,79,58,29.82,29.59,19,9,30,0.24
2014-7-9,77.0,70.3,60.4,63.7,60.7,56.8,89,73,54,30.01,29.82,11,6,17,0.00
2014-7-10,79.5,68.5,55.7,62.7,58.3,52.5,89,72,48,30.13,30.01,6,2,12,0.00
2014-7-11,81.8,70.6,56.3,68.7,61.7,53.1,89,75,52,30.16,30.00,9,3,12,0.00
2014-7-12,85.7,75.7,69.4,79.8,71.1,65.4,90,86,79,30.06,29.81,15,8,22,1.64
2014-7-13,82.8,75.0,69.8,72.6,69.0,65.4,88,82,62,29.91,29.81,10,4,14,0.55
2014-7-14,80.7,69.9,57.4,73.9,63.4,53.1,90,80,55,29.86,29.75,13,5,18,0.04
2014-7-15,66.5,59.4,51.9,56.9,53.5,48.7,90,81,67,29.95,29.85,14,7,22,0.00
2014-7-16,72.5,62.7,51.9,62.5,54.8,48.9,90,77,50,30.01,29.95,7,3,10,0.00
2014-7-17,77.1,65.8,53.2,65.2,58.0,49.9,89,77,55,30.07,30.00,6,3,10,0.00
2014-7-18,77.7,67.5,57.2,65.3,59.4,53.9,89,76,56,30.13,30.03,9,3,11,0.00
2014-7-19,80.0,67.4,53.8,66.3,58.5,50.6,90,75,51,30.06,29.96,4,1,8,0.00
2014-7-20,81.2,69.6,55.7,68.5,61.4,52.4,89,77,54,30.04,29.95,4,2,6,0.00
2014-7-21,83.3,72.3,59.7,71.8,65.4,56.1,89,80,62,30.06,29.97,8,4,11,0.00
2014-7-22,86.4,75.9,64.0,77.5,70.1,60.3,89,82,71,30.02,29.88,13,6,18,0.00
2014-7-23,76.8,70.2,56.1,72.3,62.0,52.6,89,76,54,30.09,29.90,12,5,21,0.00
2014-7-24,76.4,63.7,50.7,61.3,55.4,47.6,90,76,54,30.13,29.98,10,4,16,0.00
2014-7-25,70.5,63.4,55.4,63.3,58.8,52.1,89,85,77,30.07,29.88,15,5,20,0.01
2014-7-26,81.3,74.5,66.5,75.5,70.1,61.8,88,86,81,29.88,29.72,10,4,14,0.00
2014-7-27,82.9,74.8,64.1,74.6,65.4,59.6,89,74,54,29.85,29.72,22,11,31,0.00
2014-7-28,71.0,63.7,55.8,60.6,56.0,52.2,89,77,54,30.06,29.85,12,7,18,0.00
2014-7-29,77.0,69.0,54.0,63.0,59.2,51.1,90,73,55,30.06,29.98,11,6,18,0.00
2014-7-30,79.2,67.8,55.3,66.0,60.4,52.1,89,78,55,30.02,29.95,9,4,15,0.00
2014-7-31,80.5,69.1,55.8,67.6,61.3,52.6,89,78,54,30.03,29.98,7,3,11,0.00
2014-8-1,80.3,67.4,60.3,69.5,61.9,56.7,89,83,64,30.09,29.98,7,2,11,0.06
2014-8-2,81.1,70.8,54.9,68.1,62.5,52.0,90,76,55,30.13,30.02,5,2,8,0.01
2014-8-3,83.7,76.0,59.8,70.9,66.5,56.2,89,73,57,30.13,30.01,4,2,7,0.00
2014-8-4,84.3,72.9,60.2,69.8,65.0,56.6,89,78,57,30.07,29.94,9,4,14,0.05
2014-8-5,78.4,71.7,64.5,70.6,66.4,60.5,88,84,74,29.99,29.94,8,3,11,0.11
2014-8-6,76.6,69.5,60.9,68.6,64.6,57.8,91,85,73,30.04,29.94,7,2,8,0.01
2014-8-7,77.0,68.4,59.6,69.1,62.7,56.0,89,82,72,30.02,29.92,11,6,16,0.00
2014-8-8,76.0,70.2,64.8,69.6,64.7,60.4,89,83,76,29.98,29.93,13,6,17,0.00
2014-8-9,78.4,72.8,62.4,68.2,64.4,59.1,89,76,63,30.01,29.94,14,7,18,0.00
2014-8-10,79.6,72.0,65.2,71.9,66.6,59.9,88,83,77,29.98,29.87,10,4,13,0.00
2014-8-11,81.7,71.8,64.0,71.8,66.1,60.4,89,83,60,29.88,29.75,15,5,22,0.53
2014-8-12,72.0,65.6,59.8,61.6,59.1,56.2,89,80,63,29.95,29.76,15,8,22,0.00
2014-8-13,80.2,67.7,53.4,65.1,59.1,50.2,90,76,54,30.04,29.94,9,5,16,0.00
2014-8-14,77.2,68.1,55.7,64.9,59.9,50.6,89,76,51,30.04,29.97,10,4,15,0.00
2014-8-15,76.3,67.6,50.0,65.4,58.4,46.3,89,74,54,30.06,29.92,7,3,9,0.00
2014-8-16,76.4,71.0,62.0,70.7,65.9,58.4,89,84,74,29.92,29.84,12,4,16,0.02
2014-8-17,76.6,70.9,64.9,70.8,66.5,60.9,89,86,81,29.89,29.83,12,6,16,0.31
2014-8-18,82.8,72.4,63.3,73.5,67.0,60.3,91,84,70,29.86,29.73,4,2,8,0.00
2014-8-19,82.6,72.5,66.0,73.4,67.0,62.1,88,83,65,29.78,29.67,19,5,28,0.25
2014-8-20,80.5,72.2,61.9,72.6,67.1,58.3,89,84,75,29.91,29.75,11,4,18,0.00
2014-8-21,86.4,77.5,68.6,78.0,71.7,64.2,87,83,72,29.92,29.82,7,3,13,0.00
2014-8-22,78.4,74.3,71.8,73.9,69.7,67.0,88,86,84,29.92,29.78,12,4,18,0.42
2014-8-23,83.0,73.5,69.1,78.3,69.1,64.7,88,86,80,29.95,29.85,17,4,23,0.37
2014-8-24,88.6,80.8,68.5,81.7,75.4,64.8,89,84,78,29.93,29.85,8,4,12,0.00
2014-8-25,94.1,79.2,69.5,81.7,72.8,65.7,88,82,60,29.98,29.87,15,6,23,0.46
2014-8-26,86.6,79.4,69.7,79.2,74.1,65.8,88,84,75,30.04,29.95,11,4,16,0.00
2014-8-27,73.6,71.1,69.3,68.7,67.0,65.3,88,87,80,30.07,30.00,7,3,9,0.00
2014-8-28,70.6,70.4,70.2,66.2,66.0,65.8,86,86,86,29.97,29.95,6,5,12,0.58
2014-8-29,86.6,75.7,69.1,77.1,70.4,64.7,89,84,70,29.95,29.78,12,5,16,0.07
2014-8-30,81.7,76.0,67.3,75.1,71.1,63.8,89,85,77,29.88,29.78,12,6,22,0.76
2014-8-31,83.5,74.9,67.6,75.2,69.9,63.7,89,85,72,29.89,29.78,10,4,15,0.07
2014-9-1,82.3,75.1,68.5,72.3,68.4,64.7,89,81,63,29.83,29.67,14,8,19,0.00
2014-9-2,82.4,73.3,65.1,70.6,66.2,61.5,89,79,56,29.93,29.80,9,4,14,0.00
2014-9-3,83.8,71.8,59.1,71.3,64.7,55.9,89,79,57,29.99,29.88,10,4,14,0.00
2014-9-4,88.6,77.1,69.7,78.0,71.2,65.9,89,82,64,29.99,29.83,15,8,22,0.11
2014-9-5,90.6,76.6,61.8,77.3,70.4,58.5,90,82,64,30.04,29.79,22,7,32,0.91
2014-9-6,73.0,63.9,57.0,61.3,56.8,53.0,90,79,50,30.15,30.01,8,4,12,0.00
2014-9-7,77.7,64.1,50.7,61.0,53.8,47.6,90,72,42,30.19,30.07,4,1,7,0.00
2014-9-8,78.7,65.8,50.6,60.8,55.6,47.8,90,72,46,30.10,29.92,8,3,12,0.00
2014-9-9,80.7,67.4,58.7,68.9,62.6,55.6,90,85,63,30.02,29.77,16,6,22,0.70
2014-9-10,76.9,70.7,59.9,73.1,66.5,56.6,89,87,78,29.82,29.55,18,8,20,2.12
2014-9-11,59.9,52.4,50.7,56.6,48.5,47.0,90,85,81,30.26,29.82,11,6,18,0.00
2014-9-12,56.0,50.2,44.8,51.8,46.9,42.3,91,88,78,30.31,30.21,12,5,20,0.03
2014-9-13,59.9,48.6,37.6,45.8,41.4,35.3,92,78,54,30.37,30.27,11,4,13,0.01
2014-9-14,68.7,54.4,39.4,50.7,43.7,37.0,91,70,41,30.31,30.14,7,2,11,0.00
2014-9-15,58.3,54.4,47.8,55.1,51.4,44.9,90,89,86,30.16,30.01,8,3,13,0.51
2014-9-16,68.6,55.7,42.9,52.3,46.9,40.5,91,75,45,30.20,30.05,5,2,9,0.00
2014-9-17,70.7,57.1,43.0,55.0,49.3,40.3,90,77,52,30.05,29.92,7,2,10,0.00
2014-9-18,71.7,59.3,46.6,55.2,49.7,43.8,91,73,45,30.09,29.99,11,4,17,0.00
2014-9-19,77.3,62.0,47.2,55.8,51.0,44.4,90,70,38,30.12,29.93,12,6,17,0.00
2014-9-20,83.0,68.8,57.1,71.3,63.3,52.9,89,83,66,29.95,29.74,17,8,26,0.03
2014-9-21,70.0,61.9,50.5,66.6,54.4,47.7,90,77,58,30.10,29.73,20,9,27,0.00
2014-9-22,69.2,54.9,41.8,48.7,44.0,39.4,91,71,39,30.28,30.10,6,2,13,0.00
2014-9-23,75.4,59.2,42.9,52.2,47.2,40.3,91,68,38,30.33,30.21,6,3,11,0.00
2014-9-24,78.3,62.3,47.0,55.1,48.7,44.1,90,66,33,30.31,30.19,8,3,13,0.00
2014-9-25,81.3,65.6,53.4,58.2,52.1,47.8,90,66,32,30.25,30.13,6,2,11,0.00
2014-9-26,82.9,68.4,53.5,59.1,54.7,49.8,89,64,41,30.21,30.11,7,3,9,0.00
2014-9-27,83.8,68.4,55.4,60.6,55.9,52.0,90,68,34,30.19,30.06,9,3,14,0.00
2014-9-28,83.5,67.5,49.6,61.7,55.0,46.8,91,68,37,30.12,29.99,6,1,9,0.00
2014-9-29,84.7,68.6,52.4,59.9,56.1,49.3,89,68,40,30.01,29.87,9,3,13,0.00
2014-9-30,67.1,58.5,51.1,57.6,52.0,47.4,89,80,62,29.98,29.90,12,7,16,0.00
2014-10-1,82.2,64.0,47.2,62.5,54.5,44.4,90,74,47,29.96,29.80,10,6,16,0.01
2014-10-2,74.0,67.8,64.5,67.7,63.8,60.9,89,87,78,29.83,29.67,13,6,19,0.09
2014-11-4,48.3,44.9,38.7,44.1,39.9,36.0,90,83,75,30.12,30.00,15,9,24,0.04
2014-11-5,62.4,48.5,34.7,45.2,39.1,32.1,90,73,35,30.16,29.88,18,10,22,0.00
2014-11-6,49.5,42.7,35.7,44.8,37.0,28.9,90,80,68,30.23,29.82,27,15,35,0.04
2014-11-7,47.2,37.9,25.2,35.1,30.8,22.7,91,76,59,30.24,29.80,16,6,19,0.00
2014-11-8,47.5,41.8,31.0,41.0,34.0,26.5,84,74,57,30.01,29.74,24,12,35,0.00
2014-11-9,56.2,42.1,27.8,39.0,33.5,24.4,89,73,50,29.98,29.77,22,10,28,0.00
2014-11-10,64.6,45.3,42.6,48.6,37.3,38.5,88,59,54,29.80,29.49,26,13,35,0.00
2014-11-11,58.3,40.0,30.2,48.9,35.4,26.2,90,84,70,30.19,29.56,24,15,33,0.25
2014-11-12,30.2,26.4,23.5,26.2,20.2,16.5,85,77,70,30.36,30.19,21,13,27,0.00
2014-11-13,23.6,22.9,22.1,17.4,16.1,15.1,79,75,71,30.35,30.34,16,11,19,0.00